Powrót do katalogu

STARLINK-35947

AktywnyŁącznośćVLEO
NORAD 66883·PAYLOAD·🇺🇸 United States

Wystrzelony Dec 4, 2025 z Vandenberg Space Force Base

Loading…

Następne Przeloty (najbliższe 24 godziny)

TLE

ŚwieżeSource: CelesTrak SupGP

Epoka: Sep 15, 2026, 03:45 UTC

1 66883C 25283F   26258.15673611 -.00061224  00000+0 -18090-2 0  2588
2 66883  53.1582 220.4600 0001384  84.1432 289.3127 15.34418434    19

Śledź STARLINK-35947 w czasie rzeczywistym z AllMySat

Download on the App Store